カタログに戻る

AEHF 1

USA 214

運用中軍事GEO
NORAD 36868·PAYLOAD·🇺🇸 United States

打ち上げ Aug 14, 2010 から Cape Canaveral Space Force Station

Loading…

TLE

最新Source: Space-Track

元期: Sep 14, 2026, 13:56 UTC

1 36868U 10039A   26257.58108104  .00000142  00000-0  00000-0 0  9990
2 36868   8.4420  66.8671 0003664  94.3952  71.5454  1.00278157 54552

AllMySatでAEHF 1をリアルタイム追跡

Download on the App Store